Estación de Maule

Ultimos registro cada 15 minutos 41
Estación Fecha / Hora Temperatura Humedad Lluvia Velocidad Dirección Radiación Presion
41 Maule 02-05-2026 10:15 8,9 71 0 1,3 185 462 1020,3
40 Maule 02-05-2026 10:00 8,6 74 0 0,9 166 429 1020,4
39 Maule 02-05-2026 09:45 8 76 0 0,9 206 392 1020,5
38 Maule 02-05-2026 09:30 7,6 79 0 2,2 153 353 1020,6
37 Maule 02-05-2026 09:15 7,1 81 0 1,8 185 309 1020,8
36 Maule 02-05-2026 09:00 6,4 82 0 1,3 152 267 1020,9
35 Maule 02-05-2026 08:45 5,9 85 0 0,9 203 221 1020,7
34 Maule 02-05-2026 08:30 5,6 86 0 1,3 195 163 1020,8
33 Maule 02-05-2026 08:15 5 87 0 2,2 185 111 1020,4
32 Maule 02-05-2026 08:00 4,5 88 0 1,8 181 42 1020,6
31 Maule 02-05-2026 07:45 4,4 88 0 1,3 174 28 1020,5
30 Maule 02-05-2026 07:30 4,8 86 0 2,2 202 0 1020,5
29 Maule 02-05-2026 07:15 5 86 0 1,8 185 0 1020,5
28 Maule 02-05-2026 06:45 5,3 86 0 2,2 195 0 1020,4
27 Maule 02-05-2026 06:30 5,2 87 0 1,8 190 0 1020,4
26 Maule 02-05-2026 06:15 5,1 87 0 1,8 190 0 1020,5
25 Maule 02-05-2026 06:00 5,3 87 0 0,9 185 0 1020,4
24 Maule 02-05-2026 05:45 5,4 88 0 0,9 195 0 1020,5
23 Maule 02-05-2026 05:30 5,3 88 0 1,3 181 0 1020,4
22 Maule 02-05-2026 05:15 5,2 89 0 0,9 200 0 1020,5
21 Maule 02-05-2026 05:00 5,1 89 0 1,3 185 0 1020,5
20 Maule 02-05-2026 04:45 5,2 88 0 0,4 180 0 1020,8
19 Maule 02-05-2026 04:30 5,6 88 0 0,9 180 0 1020,8
18 Maule 02-05-2026 04:15 5,8 87 0 1,3 180 0 1020,9
17 Maule 02-05-2026 04:00 6,1 86 0 0,9 195 0 1021,2
16 Maule 02-05-2026 03:45 6,3 86 0 1,8 185 0 1021,2
15 Maule 02-05-2026 03:30 6,4 85 0 0,9 181 0 1021,4
14 Maule 02-05-2026 03:15 6,6 85 0 2,2 207 0 1021,6
13 Maule 02-05-2026 03:00 6,6 85 0 1,8 185 0 1021,7
12 Maule 02-05-2026 02:45 6,6 85 0 0,9 180 0 1021,8
11 Maule 02-05-2026 02:30 6,7 86 0 2,2 180 0 1021,7
10 Maule 02-05-2026 02:15 6,7 86 0 0,9 169 0 1021,9
9 Maule 02-05-2026 02:00 6,6 88 0 1,3 185 0 1021,9
8 Maule 02-05-2026 01:45 6,6 85 0 0,4 185 0 1021,9
7 Maule 02-05-2026 01:30 7,4 84 0 0,4 185 0 1022,1
6 Maule 02-05-2026 01:15 7,7 84 0 0 185 0 1022,2
5 Maule 02-05-2026 01:00 8 84 0 0 185 0 1022,4
4 Maule 02-05-2026 00:45 8,2 84 0 0,4 185 0 1022,7
3 Maule 02-05-2026 00:30 8,4 83 0 0 185 0 1023
2 Maule 02-05-2026 00:15 8,8 83 0 0,4 185 0 1023,1
1 Maule 02-05-2026 00:00 9,4 82 0 1,3 185 0 1023,3